AKDT,Max TemperatureF,Mean TemperatureF,Min TemperatureF,Max Dew PointF,MeanDew PointF,Min DewpointF,Max Humidity, Mean Humidity, Min Humidity, Max Sea Level PressureIn, Mean Sea Level PressureIn, Min Sea Level PressureIn, Max VisibilityMiles, Mean VisibilityMiles, Min VisibilityMiles, Max Wind SpeedMPH, Mean Wind SpeedMPH, Max Gust SpeedMPH,PrecipitationIn, CloudCover, Events, WindDirDegrees
2012-10-1,37,32,28,30,27,23,87,80,65,30.04,29.99,29.92,10,10,5,22,12,30,0.00,3,,112
2012-10-2,42,38,35,36,34,30,87,82,76,29.91,29.87,29.84,10,10,10,17,14,28,0.00,8,,132
2012-10-3,44,42,39,37,36,34,87,85,76,29.97,29.92,29.86,10,10,10,17,10,22,0.00,8,,117
2012-10-4,46,42,39,43,37,32,93,83,70,29.86,29.71,29.66,10,10,5,25,16,31,0.00,7,,84
2012-10-5,44,40,37,39,34,34,87,75,66,29.82,29.78,29.74,10,10,10,21,12,31,0.00,7,,133
2012-10-6,44,40,37,34,33,32,81,72,61,30.06,29.89,29.74,10,10,10,22,15,29,0.00,5,,179
2012-10-7,39,34,30,34,31,28,93,81,70,30.29,30.21,30.06,10,8,1,14,9,20,0.00,7,,231
2012-10-8,37,32,28,30,26,18,93,77,52,30.55,30.39,30.28,10,9,1,13,4,,0.00,5,,358
2012-10-9,35,30,26,21,18,16,74,61,44,30.60,30.57,30.55,10,10,10,15,10,18,0.00,0,,39
2012-10-10,33,28,24,21,18,16,74,64,48,30.57,30.51,30.38,10,10,10,14,10,17,0.00,0,,60
2012-10-11,30,24,19,21,18,12,86,72,64,30.38,30.16,29.93,10,10,10,8,4,,0.00,1,,300
2012-10-12,33,28,24,21,16,12,74,59,44,29.93,29.84,29.77,10,10,10,21,10,28,0.00,1,,9
2012-10-13,33,28,21,21,18,14,86,66,56,29.79,29.70,29.60,10,10,10,10,6,,0.00,5,,349
2012-10-14,30,26,21,21,18,12,86,73,55,29.60,29.52,29.48,10,10,8,12,3,,0.00,6,,349
2012-10-15,26,22,17,12,9,7,73,60,43,29.57,29.53,29.50,10,10,10,17,10,23,0.00,0,,332
2012-10-16,30,26,21,14,12,10,64,57,47,29.88,29.70,29.56,10,10,10,20,15,26,0.00,4,,346
2012-10-17,35,30,26,19,13,10,59,53,51,30.11,30.00,29.72,10,10,8,16,11,22,0.00,5,,345
2012-10-18,33,26,19,18,16,12,86,60,48,30.25,30.18,30.11,10,10,10,13,8,20,0.00,3,,335
2012-10-19,26,20,14,21,16,10,86,80,69,30.44,30.35,30.25,10,10,10,7,3,,0.00,4,,241
2012-10-20,24,20,17,18,17,12,93,80,74,30.56,30.52,30.43,10,10,6,18,7,,0.00,7,,116
2012-10-21,24,22,19,18,15,12,86,75,68,30.53,30.42,30.33,10,10,10,28,21,29,0.00,6,,84
2012-10-22,24,20,17,14,12,10,80,68,59,30.61,30.45,30.34,10,9,2,22,16,,0.00,8,,75
2012-10-23,28,22,17,19,16,12,93,79,59,30.74,30.67,30.61,10,10,8,8,3,,0.00,2,,250
2012-10-24,24,19,14,18,13,9,93,79,69,30.79,30.76,30.72,10,10,1,15,8,,0.00,0,,65
2012-10-25,26,22,19,21,17,14,86,76,64,30.72,30.62,30.51,10,10,10,20,13,,0.00,6,,69
2012-10-26,28,24,21,21,20,16,93,82,69,30.52,30.46,30.39,10,10,10,12,9,,0.00,3,,61
2012-10-27,21,18,14,18,15,10,93,87,79,30.40,30.33,30.25,10,9,0,10,6,,0.00,2,,269
2012-10-28,28,20,12,25,18,9,93,87,79,30.31,30.26,30.14,10,10,2,10,5,,0.00,5,,256
2012-10-29,30,22,14,27,14,5,93,75,59,30.29,30.18,30.11,10,10,2,16,11,24,0.00,5,,299
2012-10-30,26,20,15,16,13,9,80,68,55,30.43,30.36,30.29,10,10,10,17,10,25,0.00,4,,333
2012-10-31,23,19,15,10,8,5,68,59,50,30.44,30.41,30.39,10,10,10,22,14,30,0.00,0,,11